Погода в Киеве

Украина / Киевская область     50°27′01″N   30°31′24″E
темп.,
°C
ветер,
м/с
пор.,
м/с
влажн.,
%
обл.,
%
осадки,
мм/ч
давл.,
гПа
погр.,
м
12 апреля, пн
пн1200:00+9вюв23510 0.0 102787
03:00+8всв2256100 0.0 102743
06:00+7св236385 0.0 102567
09:00+9св3555100 0.0 1025257
12:00+13всв3437100 0.0 1023820
15:00+9всв3476100 0.0 1023360
18:00+9всв2381100 0.0 1022363
21:00+9всв1283100 0.0 1022105
13 апреля, вт
вт1300:00+9ссз1184100 0.0 102126
03:00+9с1286100 0.0 102158
06:00+9ссз2387100 0.0 1020105
09:00+9с1388100 0.1 1020143
12:00+11ссв1183100 0.1 1019254
15:00+10ююв1291100 0.5 1019191
18:00+10ююв3690100 0.1 1019379
21:00+9юв3792100 0.1 1019404
14 апреля, ср
ср1400:00+9ююв389190 0.0 1018404
03:00+8ююв31088100 0.0 1017544
06:00+8юв379193 0.0 1017252
09:00+10ююв367898 0.0 1017376
12:00+14ююв465764 0.0 10161356
15:00+15ю564899 0.1 10151763
18:00+14ю3551100 0.0 10141415
21:00+12ю2363100 0.0 1015156
15 апреля, чт
чт1500:00+11ююв1269100 0.1 101559
03:00+10юз1173100 0.1 101518
06:00+10ссв1175100 0.0 101524
09:00+10с1176100 0.3 1015124
12:00+14всв1257100 0.0 1014752
15:00+16всв1246100 0.1 10131459
18:00+15в225485 0.3 1013910
21:00+12вюв127087 0.7 1013157
16 апреля, пт
пт1600:00+11с237859 0.0 1013116
03:00+10сз258596 0.0 1012213
06:00+9сз3690100 0.0 1012273
09:00+10сз4990100 0.1 1012425
12:00+11ссз4786100 0.3 1012629
15:00+10св1389100 3.0 1012282
18:00+10зюз1289100 2.4 1012199
21:00+10св249386 2.8 1013181